Hourly Weather Otrub

Today, 28 July, Wednesday

Time Temperature Precipitation Wind Pressure Humidity
00:00 +18°C° 0 mm 2 mps 738 mmHg 88%
01:00 +18°C° 0 mm 2 mps 738 mmHg 90%
02:00 +19°C° 0 mm 1 mps 738 mmHg 93%
03:00 +19°C° 0 mm 1 mps 737 mmHg 94%
04:00 +19°C° 0 mm 1 mps 737 mmHg 95%
05:00 +19°C° 0 mm 1 mps 737 mmHg 95%
06:00 +20°C° 0 mm 1 mps 737 mmHg 89%
07:00 +21°C° 0 mm 2 mps 737 mmHg 84%
08:00 +23°C° 0 mm 2 mps 737 mmHg 78%
09:00 +25°C° 0 mm 3 mps 737 mmHg 70%
10:00 +26°C° 0 mm 3 mps 737 mmHg 62%
11:00 +28°C° 0 mm 3 mps 737 mmHg 55%
12:00 +29°C° 0.1 mm 3 mps 737 mmHg 51%
13:00 +29°C° 0.1 mm 3 mps 737 mmHg 48%
14:00 +30°C° 0 mm 4 mps 737 mmHg 44%
15:00 +29°C° 0 mm 3 mps 737 mmHg 47%
16:00 +28°C° 0 mm 3 mps 737 mmHg 51%
17:00 +27°C° 0 mm 3 mps 736 mmHg 55%
18:00 +25°C° 0.1 mm 3 mps 736 mmHg 61%
19:00 +24°C° 0.1 mm 2 mps 736 mmHg 67%
20:00 +21°C° 0.1 mm 2 mps 736 mmHg 73%
21:00 +21°C° 0 mm 2 mps 736 mmHg 76%
22:00 +21°C° 0 mm 1 mps 736 mmHg 80%
23:00 +20°C° 0 mm 1 mps 736 mmHg 84%

Tomorrow, 29 July, Thursday

Time Temperature Precipitation Wind Pressure Humidity
00:00 +20°C° 0 mm 1 mps 736 mmHg 83%
01:00 +20°C° 0 mm 1 mps 736 mmHg 83%
02:00 +20°C° 0 mm 1 mps 736 mmHg 83%
03:00 +19°C° 0 mm 1 mps 736 mmHg 83%
04:00 +19°C° 0 mm 1 mps 735 mmHg 83%
05:00 +18°C° 0 mm 2 mps 735 mmHg 84%
06:00 +21°C° 0 mm 1 mps 735 mmHg 78%
07:00 +22°C° 0 mm 1 mps 735 mmHg 73%
08:00 +24°C° 0 mm 1 mps 735 mmHg 68%
09:00 +25°C° 0.1 mm 1 mps 735 mmHg 64%
10:00 +26°C° 0.1 mm 2 mps 735 mmHg 60%
11:00 +27°C° 0.1 mm 2 mps 735 mmHg 57%
12:00 +26°C° 0.7 mm 2 mps 735 mmHg 67%
13:00 +24°C° 0.7 mm 2 mps 735 mmHg 77%
14:00 +21°C° 0.7 mm 2 mps 734 mmHg 87%
15:00 +22°C° 0.3 mm 3 mps 734 mmHg 83%
16:00 +24°C° 0.3 mm 3 mps 734 mmHg 80%
17:00 +23°C° 0.3 mm 4 mps 734 mmHg 76%
18:00 +22°C° 0.2 mm 4 mps 734 mmHg 79%
19:00 +21°C° 0.2 mm 3 mps 734 mmHg 82%
20:00 +19°C° 0.2 mm 2 mps 734 mmHg 84%
21:00 +19°C° 0 mm 2 mps 734 mmHg 86%
22:00 +18°C° 0 mm 2 mps 735 mmHg 88%
23:00 +17°C° 0 mm 2 mps 735 mmHg 90%

Day after tomorrow, 30 July, Friday

Time Temperature Precipitation Wind Pressure Humidity
00:00 +17°C° 0 mm 2 mps 735 mmHg 89%
01:00 +17°C° 0 mm 2 mps 735 mmHg 87%
02:00 +18°C° 0 mm 2 mps 735 mmHg 86%
03:00 +17°C° 0 mm 2 mps 735 mmHg 88%
04:00 +17°C° 0 mm 2 mps 735 mmHg 90%
05:00 +16°C° 0 mm 2 mps 735 mmHg 93%
06:00 +18°C° 0 mm 2 mps 735 mmHg 84%
07:00 +19°C° 0 mm 3 mps 735 mmHg 76%
08:00 +21°C° 0 mm 3 mps 735 mmHg 68%
09:00 +22°C° 0 mm 4 mps 735 mmHg 60%
10:00 +23°C° 0 mm 5 mps 735 mmHg 52%
11:00 +24°C° 0 mm 6 mps 735 mmHg 44%
12:00 +24°C° 0 mm 6 mps 735 mmHg 42%
13:00 +24°C° 0 mm 6 mps 735 mmHg 39%
14:00 +26°C° 0 mm 6 mps 734 mmHg 36%
15:00 +24°C° 0 mm 6 mps 734 mmHg 40%
16:00 +25°C° 0 mm 5 mps 734 mmHg 44%
17:00 +23°C° 0 mm 5 mps 734 mmHg 48%
18:00 +22°C° 0 mm 5 mps 734 mmHg 51%
19:00 +21°C° 0 mm 4 mps 734 mmHg 54%
20:00 +20°C° 0 mm 4 mps 734 mmHg 57%
21:00 +19°C° 0 mm 3 mps 734 mmHg 62%
22:00 +18°C° 0 mm 3 mps 733 mmHg 67%
23:00 +16°C° 0 mm 3 mps 733 mmHg 73%

31 July, Saturday

Time Temperature Precipitation Wind Pressure Humidity
00:00 +16°C° 0 mm 3 mps 734 mmHg 74%
01:00 +14°C° 0 mm 3 mps 734 mmHg 76%
02:00 +14°C° 0 mm 3 mps 734 mmHg 78%
03:00 +13°C° 0 mm 3 mps 734 mmHg 79%
04:00 +13°C° 0 mm 3 mps 734 mmHg 80%
05:00 +13°C° 0 mm 3 mps 734 mmHg 82%
06:00 +16°C° 0 mm 3 mps 734 mmHg 74%
07:00 +18°C° 0 mm 4 mps 734 mmHg 66%
08:00 +20°C° 0 mm 4 mps 735 mmHg 58%
09:00 +21°C° 0 mm 4 mps 735 mmHg 53%
10:00 +23°C° 0 mm 5 mps 735 mmHg 48%
11:00 +25°C° 0 mm 5 mps 735 mmHg 43%
12:00 +26°C° 0 mm 5 mps 735 mmHg 42%
13:00 +26°C° 0 mm 4 mps 735 mmHg 40%
14:00 +27°C° 0 mm 4 mps 735 mmHg 39%
15:00 +27°C° 0 mm 4 mps 734 mmHg 40%
16:00 +27°C° 0 mm 3 mps 734 mmHg 42%
17:00 +27°C° 0 mm 3 mps 734 mmHg 44%
18:00 +25°C° 0 mm 2 mps 734 mmHg 50%
19:00 +24°C° 0 mm 1 mps 734 mmHg 57%
20:00 +22°C° 0 mm 1 mps 733 mmHg 64%
21:00 +22°C° 0 mm 1 mps 733 mmHg 65%
22:00 +21°C° 0 mm 2 mps 733 mmHg 67%
23:00 +20°C° 0 mm 3 mps 733 mmHg 69%

1 August, Sunday

Time Temperature Precipitation Wind Pressure Humidity
00:00 +19°C° 0.2 mm 3 mps 733 mmHg 76%
01:00 +19°C° 0.2 mm 2 mps 733 mmHg 83%
02:00 +18°C° 0.2 mm 2 mps 733 mmHg 89%
03:00 +17°C° 0 mm 3 mps 733 mmHg 92%
04:00 +17°C° 0 mm 3 mps 733 mmHg 94%
05:00 +17°C° 0 mm 3 mps 733 mmHg 96%
06:00 +18°C° 0 mm 3 mps 734 mmHg 88%
07:00 +19°C° 0 mm 3 mps 734 mmHg 80%
08:00 +20°C° 0 mm 4 mps 734 mmHg 72%
09:00 +22°C° 0 mm 4 mps 734 mmHg 63%
10:00 +23°C° 0 mm 4 mps 735 mmHg 53%
11:00 +25°C° 0 mm 5 mps 735 mmHg 44%
12:00 +26°C° 0 mm 5 mps 735 mmHg 43%
13:00 +26°C° 0 mm 5 mps 735 mmHg 42%
14:00 +27°C° 0 mm 5 mps 735 mmHg 41%
15:00 +26°C° 0 mm 4 mps 735 mmHg 43%
16:00 +26°C° 0 mm 4 mps 735 mmHg 46%
17:00 +25°C° 0 mm 4 mps 735 mmHg 49%
18:00 +24°C° 0 mm 3 mps 735 mmHg 55%
19:00 +21°C° 0 mm 2 mps 735 mmHg 60%
20:00 +20°C° 0 mm 2 mps 735 mmHg 66%
21:00 +20°C° 0 mm 1 mps 735 mmHg 68%
22:00 +20°C° 0 mm 1 mps 735 mmHg 71%
23:00 +19°C° 0 mm 1 mps 735 mmHg 73%

2 August, Monday

Time Temperature Precipitation Wind Pressure Humidity
00:00 +19°C° 0.1 mm 1 mps 735 mmHg 77%
01:00 +18°C° 0.1 mm 1 mps 734 mmHg 81%
02:00 +16°C° 0.1 mm 1 mps 734 mmHg 84%
03:00 +16°C° 0.9 mm 1 mps 734 mmHg 88%
04:00 +16°C° 0.9 mm 2 mps 733 mmHg 91%
05:00 +16°C° 0.9 mm 2 mps 733 mmHg 94%
06:00 +16°C° 0.6 mm 3 mps 732 mmHg 94%
07:00 +16°C° 0.6 mm 3 mps 731 mmHg 93%
08:00 +15°C° 0.6 mm 4 mps 731 mmHg 92%
09:00 +16°C° 3.2 mm 3 mps 730 mmHg 94%
10:00 +16°C° 3.2 mm 3 mps 729 mmHg 96%
11:00 +17°C° 3.2 mm 3 mps 729 mmHg 98%
12:00 +17°C° 1.5 mm 4 mps 728 mmHg 96%
13:00 +18°C° 1.5 mm 4 mps 728 mmHg 93%
14:00 +17°C° 1.5 mm 5 mps 728 mmHg 91%
15:00 +16°C° 0.4 mm 5 mps 729 mmHg 92%
16:00 +15°C° 0.4 mm 6 mps 730 mmHg 93%
17:00 +13°C° 0.4 mm 6 mps 731 mmHg 94%
18:00 +13°C° 0.1 mm 5 mps 731 mmHg 94%
19:00 +13°C° 0.1 mm 5 mps 732 mmHg 94%
20:00 +13°C° 0.1 mm 4 mps 733 mmHg 94%
21:00 +12°C° 0 mm 3 mps 733 mmHg 95%
22:00 +12°C° 0 mm 3 mps 733 mmHg 96%
23:00 +13°C° 0 mm 2 mps 733 mmHg 96%
Show more